COSMOS 1266

Satellite information

Favourite Embed

Satellite Type and Status

PAYLOADIN ORBIT

Key statistics

Satellite COSMOS 1266 at a glance.

Uptime

16252

Days in orbit

Revolutions

≈ 13.9

Per day

Orbit

LEO

Low Earth Orbit

Inclination

64.8

Latest

Satellite identification and parameters

Extended collection of information and parameters for COSMOS 1266.

Object identification

Identified? True

Debris? False

Object name: COSMOS 1266

International designator: 1981-037A

Object number (NORAD): 12409

Object ID (CCSDS): 12409

Country: COMMONWEALTH OF INDEPENDENT STATES (CIS)

Current information (Y/N): Y

RCS size: LARGE

Orbital parameters

Period: 103.553 minutes

Inclination: 64.7614 deg

SMA: 7304.677 km

Apoapsis: 957.532 km

Periapsis: 895.552 km

RAAN: 230.8277 deg

Eccentricy: 0.00424252

Argument of periapsis: 314.5387 deg

Mean anomaly: 45.2212 deg

Mean motion: 13.90596802 rev/day

Mean motion (dot): -0.00000051 rev/day2

B* drag term: 0.000032936031 1/REarth

Two-line elements (TLE)

Creation date: Oct. 19, 2025, 2:20 a.m.

Reference frame: TEME

Reference center: EARTH

Epoch: Oct. 18, 2025, 11:31 p.m. UTC

TLE line 0: 0 COSMOS 1266

TLE line 1: 1 12409U 81037A 25291.98031650 -.00000051 00000-0 32936-4 0 9990

TLE line 2: 2 12409 64.7614 230.8277 0042425 314.5387 45.2212 13.90596802259143

Live tracking on map

Real-time ground track for satellite COSMOS 1266.

In-orbit conjunctions

A list of the most updated potential collisions computed for object COSMOS 1266.

Target Orbit TCA Probability of collision Miss distance Type
THORAD AGENA D DEB SSO 2025-07-15 09:35:43 0.001075971 507.0 (m) DEBRIS
COSMOS 1771 LEO 2025-04-23 15:31:36 0.0004423166 190.0 (m) PAYLOAD
DMSP 5D-2 F13 DEB SSO 2025-02-05 16:45:57 0.0002556823 210.0 (m) DEBRIS
COSMOS 1275 DEB LEO 2025-02-05 03:57:43 0.0001263938 838.0 (m) DEBRIS
COSMOS 1275 DEB LEO 2025-01-02 06:23:46 0.0004832217 973.0 (m) DEBRIS

Associated space launch

Active radar satellite for ocean surveillance powered by a nuclear reactor.

COSMOS 1266 was lifted into orbit during the mission ‘Tsiklon-2 | US-A 18’, on board a Tsiklon-2 space rocket.

The launch took place on April 21, 1981, 3:45 a.m. from 90.

For more information about the launch, click the button.

Launch to space Tsiklon-2 | US-A 18
Tsiklon-2 | US-A 18

Agency: N/A

Status: Launch Successful

Launch date: April 21, 1981, 3:45 a.m. UTC

Rocket: Tsiklon-2

Launch pad: 90

Location: Baikonur Cosmodrome, Republic of Kazakhstan

...

Latest news about this satellite

There are no fresh news available about this satellite. Check back as we update our databases every day.


Newsletter sign-up

Weekly statistics, charts and insights to help you stay on top of the space industry.